Weather History for Olney-Noble, IL

Change the Weather History Date:

Monday, September 30, 2013

  Actual Average (KEVV) Record (KEVV)
Temperature  
Mean Temperature 68 °F 63 °F  
Max Temperature 75 °F 76 °F 99 °F (1919)
Min Temperature 62 °F 51 °F 33 °F (1949)
Degree Days  
Heating Degree Days 0 4  
Month to date heating degree days 45  
Since 1 July heating degree days 47  
Cooling Degree Days 4 2  
Month to date cooling degree days 167  
Year to date cooling degree days 1366  
Growing Degree Days 18 (Base 50)    
Moisture  
Dew Point 64 °F    
Average Humidity 91    
Maximum Humidity 100    
Minimum Humidity 69    
Precipitation  
Precipitation 0.00 in 0.11 in 1.07 in (1927)
Month to date precipitation 3.05  
Year to date precipitation 33.97  
Snow  
Snow 0.00 in 0.00 in 0.00 in (2002)
Month to date snowfall 0.0  
Since 1 July snowfall 0.0  
Since 1 September snowfall 0.0  
Snow Depth -    
Sea Level Pressure  
Sea Level Pressure 29.98 in    
Wind  
Wind Speed 1 mph (South)    
Max Wind Speed 8 mph    
Max Gust Speed -    
Visibility 6 miles    
Events Rain    
T = Trace of Precipitation, MM = Missing Value Source: NWS Daily Summary

Daily Weather History Graph

Daily Weather History Graph

Search for Another Location

Airport:

Trip Planner

Search our weather history database for the weather conditions in past years. The results will help you decide how hot, cold, wet, or windy it might be!

Date:

Astronomy

Sep. 30, 2013 Rise Set
Actual Time 6:47 AM CDT 6:36 PM CDT
Civil Twilight 6:21 AM CDT 7:03 PM CDT
Nautical Twilight 5:50 AM CDT 7:33 PM CDT
Astronomical Twilight 5:19 AM CDT 8:04 PM CDT
Moon 2:27 AM CDT (9/30) 4:05 PM CDT (9/30)
Length of Visible Light 12h 41m
Length of Day
11h 48m
Waning Crescent, 19% of the Moon is Illuminated
Sep 30
Waning Crescent
Oct 4
New
Oct 11
First Quarter
Oct 18
Full
Oct 26
Last Quarter

Hourly Weather History & Observations

Time (CDT) Temp. Dew Point Humidity Pressure Visibility Wind Dir Wind Speed Gust Speed Precip Events Conditions
12:15 AM 64.4 °F 64.4 °F 100% 29.98 in 4.0 mi Calm Calm - N/A   Overcast
12:55 AM 64.4 °F 64.4 °F 100% 29.98 in 5.0 mi Calm Calm - N/A   Overcast
1:15 AM 64.4 °F 64.4 °F 100% 29.99 in 4.0 mi Calm Calm - N/A   Overcast
1:35 AM 64.4 °F 64.4 °F 100% 29.99 in 2.5 mi Calm Calm - N/A   Overcast
1:55 AM 64.4 °F 64.4 °F 100% 29.98 in 2.0 mi Calm Calm - N/A   Overcast
2:15 AM 64.4 °F 64.4 °F 100% 29.98 in 1.5 mi Calm Calm - N/A   Overcast
2:35 AM 64.4 °F 64.4 °F 100% 29.98 in 1.2 mi Calm Calm - N/A Rain Light Rain
2:55 AM 64.4 °F 64.4 °F 100% 29.98 in 2.5 mi Calm Calm - N/A   Overcast
3:15 AM 64.4 °F 64.4 °F 100% 29.97 in 2.0 mi Calm Calm - N/A   Overcast
3:35 AM 62.6 °F 62.6 °F 100% 29.97 in 3.0 mi Calm Calm - N/A   Overcast
3:55 AM 62.6 °F 62.6 °F 100% 29.97 in 1.8 mi Calm Calm - N/A   Overcast
4:15 AM 62.6 °F 62.6 °F 100% 29.97 in 1.5 mi Calm Calm - N/A   Overcast
4:35 AM 62.6 °F 62.6 °F 100% 29.97 in 2.0 mi Calm Calm - N/A   Overcast
4:55 AM 64.4 °F 64.4 °F 100% 29.97 in 1.8 mi Calm Calm - N/A   Overcast
5:15 AM 64.4 °F 64.4 °F 100% 29.97 in 1.2 mi Calm Calm - N/A   Overcast
5:35 AM 62.6 °F 62.6 °F 100% 29.97 in 1.5 mi Calm Calm - N/A   Overcast
5:55 AM 62.6 °F 62.6 °F 100% 29.98 in 1.8 mi Calm Calm - N/A   Overcast
6:15 AM 62.6 °F 62.6 °F 100% 29.98 in 2.5 mi Calm Calm - N/A   Overcast
6:35 AM 62.6 °F 62.6 °F 100% 29.99 in 1.2 mi Calm Calm - N/A   Overcast
6:55 AM 64.4 °F 64.4 °F 100% 30.00 in 1.5 mi Calm Calm - N/A   Overcast
7:15 AM 64.4 °F 64.4 °F 100% 30.00 in 2.5 mi Calm Calm - N/A   Overcast
7:35 AM 64.4 °F 64.4 °F 100% 30.00 in 1.5 mi Calm Calm - N/A   Overcast
7:55 AM 64.4 °F 64.4 °F 100% 30.00 in 0.8 mi SSE 3.5 mph - N/A Rain Rain
8:15 AM 64.4 °F 64.4 °F 100% 30.00 in 2.5 mi Calm Calm - N/A   Overcast
8:35 AM 64.4 °F 64.4 °F 100% 30.01 in 5.0 mi Calm Calm - N/A   Overcast
8:55 AM 64.4 °F 64.4 °F 100% 30.01 in 7.0 mi Calm Calm - N/A   Overcast
9:15 AM 66.2 °F 66.2 °F 100% 30.01 in 7.0 mi Calm Calm - N/A   Overcast
9:35 AM 66.2 °F 64.4 °F 94% 30.01 in 5.0 mi Calm Calm - N/A   Overcast
9:55 AM 64.4 °F 64.4 °F 100% 30.01 in 3.0 mi SSE 4.6 mph - N/A   Overcast
10:15 AM 66.2 °F 66.2 °F 100% 30.01 in 4.0 mi Calm Calm - N/A   Overcast
10:35 AM 66.2 °F 64.4 °F 94% 30.01 in 5.0 mi Calm Calm - N/A   Overcast
10:55 AM 68.0 °F 64.4 °F 88% 30.00 in 7.0 mi SE 5.8 mph - N/A   Overcast
11:15 AM 69.8 °F 64.4 °F 83% 30.00 in 5.0 mi SE 3.5 mph - N/A   Haze
11:35 AM 69.8 °F 64.4 °F 83% 30.00 in 7.0 mi SSE 5.8 mph - N/A   Overcast
11:55 AM 69.8 °F 64.4 °F 83% 30.00 in 7.0 mi South 4.6 mph - N/A   Overcast
12:15 PM 69.8 °F 64.4 °F 83% 30.00 in 10.0 mi South 3.5 mph - N/A   Overcast
12:35 PM 69.8 °F 64.4 °F 83% 30.00 in 10.0 mi South 4.6 mph - N/A   Overcast
12:55 PM 71.6 °F 64.4 °F 78% 29.99 in 10.0 mi SSE 3.5 mph - N/A   Overcast
1:15 PM 71.6 °F 64.4 °F 78% 29.99 in 10.0 mi South 4.6 mph - N/A   Overcast
1:35 PM 73.4 °F 64.4 °F 73% 29.98 in 10.0 mi Calm Calm - N/A   Overcast
1:55 PM 71.6 °F 64.4 °F 78% 29.96 in 10.0 mi South 3.5 mph - N/A   Overcast
2:15 PM 73.4 °F 64.4 °F 73% 29.95 in 10.0 mi South 4.6 mph - N/A   Overcast
2:35 PM 73.4 °F 64.4 °F 73% 29.95 in 10.0 mi South 3.5 mph - N/A   Mostly Cloudy
2:55 PM 73.4 °F 64.4 °F 73% 29.94 in 10.0 mi SSE 5.8 mph - N/A   Mostly Cloudy
3:15 PM 73.4 °F 64.4 °F 73% 29.94 in 10.0 mi SE 8.1 mph - N/A   Overcast
3:35 PM 73.4 °F 64.4 °F 73% 29.94 in 10.0 mi SSE 4.6 mph - N/A   Unknown
3:55 PM 75.2 °F 64.4 °F 69% 29.94 in 10.0 mi SSE 8.1 mph - N/A   Mostly Cloudy
4:35 PM 75.2 °F 64.4 °F 69% 29.94 in 10.0 mi South 5.8 mph - N/A   Overcast
4:55 PM 75.2 °F 64.4 °F 69% 29.93 in 10.0 mi SSW 6.9 mph - N/A   Mostly Cloudy
5:15 PM 75.2 °F 64.4 °F 69% 29.94 in 10.0 mi South 4.6 mph - N/A   Mostly Cloudy
5:35 PM 73.4 °F 64.4 °F 73% 29.94 in 10.0 mi South 5.8 mph - N/A   Mostly Cloudy
5:55 PM 71.6 °F 64.4 °F 78% 29.94 in 10.0 mi South 5.8 mph - N/A   Scattered Clouds
6:15 PM 71.6 °F 64.4 °F 78% 29.94 in 10.0 mi South 4.6 mph - N/A   Clear
6:35 PM 69.8 °F 64.4 °F 83% 29.94 in 10.0 mi SSE 5.8 mph - N/A   Clear
8:35 PM 64.4 °F 64.4 °F 100% 29.97 in 10.0 mi South 4.6 mph - N/A   Clear
8:55 PM 64.4 °F 62.6 °F 94% 29.97 in 10.0 mi Calm Calm - N/A   Clear
9:15 PM 64.4 °F 64.4 °F 100% 29.98 in 10.0 mi South 3.5 mph - N/A   Clear
9:35 PM 64.4 °F 64.4 °F 100% 29.97 in 10.0 mi South 3.5 mph - N/A   Clear
9:55 PM 64.4 °F 64.4 °F 100% 29.98 in 10.0 mi Calm Calm - N/A   Clear
10:15 PM 64.4 °F 64.4 °F 100% 29.98 in 10.0 mi Calm Calm - N/A   Clear
10:35 PM 64.4 °F 64.4 °F 100% 29.98 in 10.0 mi Calm Calm - N/A   Clear
10:55 PM 62.6 °F 62.6 °F 100% 29.98 in 10.0 mi Calm Calm - N/A   Clear
11:15 PM 62.6 °F 62.6 °F 100% 29.98 in 7.0 mi South 3.5 mph - N/A   Clear
11:35 PM 62.6 °F 62.6 °F 100% 29.98 in 7.0 mi Calm Calm - N/A   Clear
11:55 PM 62.6 °F 62.6 °F 100% 29.98 in 7.0 mi Calm Calm - N/A   Clear